Location: Ammerl�gen
(47.2167°N, 9.6000°E)
Time: 11:59:23
(UTC+00:00)

Cosmos 676 Rocket - Pass Details

Date: 29 July 2021
Orbit: 755 x 783 km, 74.0° (Epoch: 26 September)

Event Time Altitude Azimuth Distance (km) Brightness Sun altitude
Exits shadow 00:28:25 - 122° (ESE) 2,554 6.5 -22.7°
Reaches altitude 10° 00:29:50 10° 108° (ESE) 2,339 6.5 -22.6°
Maximum altitude 00:31:21 11° 91° (E) 2,257 6.6 -22.5°
Drops below altitude 10° 00:32:52 10° 74° (ENE) 2,344 6.9 -22.5°
Sets 00:37:09 0° 42° (NE) 3,280 8.4 -22.2°
